This demonstration page uses our WeatherBlox Daily Observations layout. Learn more.

Left ArrowRight Arrow

44.8408, -93.29828

Hourly Observations for November 20, 2015

Temp ( °F °C ) Dew Point ( °F °C ) Humidity (%) Winds ( mph kmh ) Pressure ( in mb ) Visibility ( mi km ) Precip ( " mm )
12:53 am 00:53 Clear 30 -1.1 9 -12.8 41 41 W 21 33 30.04 1017 10 16 0.00 0.00
1:53 am 01:53 Clear 29 -1.7 10 -12.2 45 45 W 20 31 30.08 1019 10 16 0.00 0.00
2:53 am 02:53 Clear 28 -2.2 10 -12.2 47 47 W 12 19 30.10 1019 10 16 0.00 0.00
3:53 am 03:53 Clear 27 -2.8 10 -12.2 49 49 W 14 22 30.12 1020 10 16 0.00 0.00
4:53 am 04:53 Clear 26 -3.3 11 -11.7 53 53 W 14 22 30.14 1021 10 16 0.00 0.00
5:53 am 05:53 Mostly Clear 25 -3.9 11 -11.7 55 55 W 10 17 30.16 1021 10 16 0.00 0.00
6:53 am 06:53 Mostly Cloudy 26 -3.3 11 -11.7 53 53 W 12 19 30.19 1022 10 16 0.00 0.00
7:53 am 07:53 Mostly Cloudy 26 -3.3 12 -11.1 55 55 W 8 13 30.21 1023 10 16 0.00 0.00
8:53 am 08:53 Cloudy 27 -2.8 12 -11.1 53 53 W 8 13 30.24 1024 10 16 0.00 0.00
9:53 am 09:53 Cloudy 28 -2.2 13 -10.6 53 53 WNW 8 13 30.25 1024 10 16 0.00 0.00
10:53 am 10:53 Cloudy 28 -2.2 14 -10 56 56 SW 7 11 30.26 1025 10 16 0.00 0.00
11:53 am 11:53 Cloudy 28 -2.2 15 -9.4 58 58 WSW 6 9 30.25 1024 10 16 0.00 0.00
12:53 pm 12:53 Cloudy 28 -2.2 15 -9.4 58 58 SSW 6 9 30.24 1024 10 16 0.00 0.00
1:53 pm 13:53 Cloudy 29 -1.7 15 -9.4 56 56 SW 6 9 30.23 1024 10 16 0.00 0.00
2:53 pm 14:53 Cloudy 29 -1.7 15 -9.4 56 56 SW 7 11 30.24 1024 10 16 0.00 0.00
3:53 pm 15:53 Cloudy 29 -1.7 16 -8.9 58 58 WSW 5 7 30.25 1024 10 16 0.00 0.00
4:53 pm 16:53 Cloudy 29 -1.7 16 -8.9 58 58 W 5 7 30.26 1025 10 16 0.00 0.00
5:53 pm 17:53 Cloudy 29 -1.7 15 -9.4 56 56 NW 6 9 30.29 1026 10 16 0.00 0.00
6:53 pm 18:53 Cloudy 29 -1.7 17 -8.3 61 61 NW 7 11 30.30 1026 10 16 0.00 0.00
7:53 pm 19:53 Cloudy 29 -1.7 17 -8.3 61 61 NW 6 9 30.32 1027 10 16 0.00 0.00
8:53 pm 20:53 Cloudy 28 -2.2 17 -8.3 63 63 WNW 6 9 30.33 1027 10 16 0.00 0.00
9:53 pm 21:53 Cloudy 27 -2.8 17 -8.3 66 66 WNW 9 15 30.34 1028 10 16 0.00 0.00
10:53 pm 22:53 Cloudy 27 -2.8 16 -8.9 63 63 NW 10 17 30.34 1027 10 16 0.00 0.00
11:53 pm 23:53 Cloudy 25 -3.9 13 -10.6 60 60 NNW 13 20 30.35 1028 10 16 0.00 0.00

Powered by AerisWeather